TimeAKST,TemperatureF,Dew PointF,Humidity,Sea Level PressureIn,VisibilityMPH,Wind Direction,Wind SpeedMPH,Gust SpeedMPH,PrecipitationIn,Events,Conditions,WindDirDegrees,DateUTC
12:16 AM,6.8,1.4,79,29.73,10.0,Calm,Calm,-,N/A,,Clear,0,2013-03-07 09:16:00
12:36 AM,6.8,-0.4,72,29.73,10.0,Calm,Calm,-,N/A,,Clear,0,2013-03-07 09:36:00
12:56 AM,6.8,3.2,85,29.73,10.0,Calm,Calm,-,N/A,,Clear,0,2013-03-07 09:56:00
1:16 AM,8.6,3.2,79,29.71,10.0,Calm,Calm,-,N/A,,Clear,0,2013-03-07 10:16:00
1:36 AM,6.8,1.4,79,29.71,10.0,Calm,Calm,-,N/A,,Clear,0,2013-03-07 10:36:00
1:56 AM,6.8,3.2,85,29.70,10.0,Calm,Calm,-,N/A,,Clear,0,2013-03-07 10:56:00
2:16 AM,8.6,3.2,79,29.68,10.0,Calm,Calm,-,N/A,,Clear,0,2013-03-07 11:16:00
2:36 AM,8.6,1.4,73,29.69,10.0,Calm,Calm,-,N/A,,Clear,0,2013-03-07 11:36:00
2:56 AM,6.8,-0.4,72,29.69,10.0,Calm,Calm,-,N/A,,Clear,0,2013-03-07 11:56:00
3:16 AM,10.4,5.0,79,29.66,10.0,Calm,Calm,-,N/A,,Clear,0,2013-03-07 12:16:00
3:36 AM,12.2,3.2,67,29.64,10.0,NE,3.5,-,N/A,,Clear,50,2013-03-07 12:36:00
3:56 AM,8.6,5.0,85,29.64,10.0,Calm,Calm,-,N/A,,Clear,0,2013-03-07 12:56:00
4:16 AM,6.8,-2.2,67,29.63,10.0,Calm,Calm,-,N/A,,Clear,0,2013-03-07 13:16:00
4:36 AM,10.4,3.2,73,29.60,10.0,Calm,Calm,-,N/A,,Clear,0,2013-03-07 13:36:00
4:56 AM,12.2,8.6,85,29.59,10.0,Calm,Calm,-,N/A,,Clear,0,2013-03-07 13:56:00
5:16 AM,12.2,5.0,73,29.57,10.0,Calm,Calm,-,N/A,,Clear,0,2013-03-07 14:16:00
5:36 AM,12.2,6.8,79,29.55,10.0,Calm,Calm,-,N/A,,Clear,0,2013-03-07 14:36:00
5:56 AM,8.6,1.4,73,29.56,10.0,Calm,Calm,-,N/A,,Clear,0,2013-03-07 14:56:00
6:16 AM,12.2,3.2,67,29.54,10.0,Calm,Calm,-,N/A,,Clear,0,2013-03-07 15:16:00
6:36 AM,15.8,8.6,73,29.52,10.0,Calm,Calm,-,N/A,,Clear,0,2013-03-07 15:36:00
6:56 AM,17.6,8.6,68,29.51,10.0,Calm,Calm,-,N/A,,Clear,0,2013-03-07 15:56:00
7:16 AM,17.6,8.6,68,29.50,10.0,Calm,Calm,-,N/A,,Clear,0,2013-03-07 16:16:00
7:36 AM,15.8,6.8,68,29.50,10.0,East,3.5,-,N/A,,Clear,80,2013-03-07 16:36:00
7:56 AM,8.6,3.2,79,29.50,10.0,Calm,Calm,-,N/A,,Partly Cloudy,0,2013-03-07 16:56:00
8:16 AM,6.8,1.4,79,29.48,10.0,Calm,Calm,-,N/A,,Partly Cloudy,0,2013-03-07 17:16:00
8:36 AM,6.8,1.4,79,29.46,10.0,Calm,Calm,-,N/A,,Partly Cloudy,0,2013-03-07 17:36:00
8:56 AM,8.6,3.2,79,29.45,10.0,Calm,Calm,-,N/A,,Partly Cloudy,0,2013-03-07 17:56:00
9:16 AM,10.4,3.2,73,29.44,10.0,Calm,Calm,-,N/A,,Mostly Cloudy,0,2013-03-07 18:16:00
9:36 AM,10.4,3.2,73,29.42,10.0,Calm,Calm,-,N/A,,Partly Cloudy,0,2013-03-07 18:36:00
9:56 AM,10.4,3.2,73,29.41,10.0,Calm,Calm,-,N/A,,Clear,0,2013-03-07 18:56:00
10:16 AM,10.4,1.4,67,29.41,10.0,Calm,Calm,-,N/A,,Clear,0,2013-03-07 19:16:00
10:36 AM,12.2,6.8,79,29.40,10.0,Calm,Calm,-,N/A,,Clear,0,2013-03-07 19:36:00
10:56 AM,10.4,3.2,73,29.39,10.0,Calm,Calm,-,N/A,,Mostly Cloudy,0,2013-03-07 19:56:00
11:16 AM,12.2,5.0,73,29.39,10.0,Calm,Calm,-,N/A,,Mostly Cloudy,0,2013-03-07 20:16:00
11:36 AM,15.8,6.8,68,29.38,10.0,Calm,Calm,-,N/A,,Mostly Cloudy,0,2013-03-07 20:36:00
11:56 AM,15.8,8.6,73,29.37,10.0,Calm,Calm,-,N/A,,Overcast,0,2013-03-07 20:56:00
12:16 PM,14.0,5.0,67,29.38,10.0,Calm,Calm,-,N/A,,Overcast,0,2013-03-07 21:16:00
12:36 PM,15.8,6.8,68,29.37,10.0,Calm,Calm,-,N/A,,Overcast,0,2013-03-07 21:36:00
12:56 PM,15.8,8.6,73,29.36,10.0,Calm,Calm,-,N/A,,Overcast,0,2013-03-07 21:56:00
1:16 PM,17.6,8.6,68,29.35,10.0,Calm,Calm,-,N/A,,Overcast,0,2013-03-07 22:16:00
1:36 PM,15.8,8.6,73,29.33,10.0,Calm,Calm,-,N/A,,Overcast,0,2013-03-07 22:36:00
1:56 PM,15.8,8.6,73,29.32,10.0,Calm,Calm,-,N/A,,Mostly Cloudy,0,2013-03-07 22:56:00
2:16 PM,17.6,6.8,63,29.31,10.0,Calm,Calm,-,N/A,,Partly Cloudy,0,2013-03-07 23:16:00
2:36 PM,17.6,8.6,68,29.30,10.0,Calm,Calm,-,N/A,,Clear,0,2013-03-07 23:36:00
2:56 PM,17.6,8.6,68,29.31,10.0,Calm,Calm,-,N/A,,Clear,0,2013-03-07 23:56:00
3:16 PM,17.6,8.6,68,29.30,10.0,Calm,Calm,-,N/A,,Clear,0,2013-03-08 00:16:00
3:36 PM,17.6,8.6,68,29.29,10.0,Calm,Calm,-,N/A,,Clear,0,2013-03-08 00:36:00
3:56 PM,17.6,8.6,68,29.28,10.0,Calm,Calm,-,N/A,,Clear,0,2013-03-08 00:56:00
4:16 PM,17.6,8.6,68,29.30,10.0,Calm,Calm,-,N/A,,Clear,0,2013-03-08 01:16:00
4:36 PM,17.6,8.6,68,29.30,10.0,Calm,Calm,-,N/A,,Clear,0,2013-03-08 01:36:00
4:56 PM,19.4,8.6,63,29.29,10.0,Calm,Calm,-,N/A,,Clear,0,2013-03-08 01:56:00
5:16 PM,17.6,8.6,68,29.29,10.0,Calm,Calm,-,N/A,,Clear,0,2013-03-08 02:16:00
5:36 PM,17.6,8.6,68,29.30,10.0,Calm,Calm,-,N/A,,Clear,0,2013-03-08 02:36:00
5:56 PM,15.8,8.6,73,29.29,10.0,Calm,Calm,-,N/A,,Clear,0,2013-03-08 02:56:00
6:16 PM,15.8,8.6,73,29.31,10.0,Calm,Calm,-,N/A,,Clear,0,2013-03-08 03:16:00
6:36 PM,15.8,8.6,73,29.31,10.0,Calm,Calm,-,N/A,,Clear,0,2013-03-08 03:36:00
6:56 PM,17.6,8.6,68,29.33,10.0,Calm,Calm,-,N/A,,Clear,0,2013-03-08 03:56:00
7:16 PM,15.8,8.6,73,29.34,10.0,Calm,Calm,-,N/A,,Clear,0,2013-03-08 04:16:00
7:36 PM,15.8,8.6,73,29.34,10.0,Calm,Calm,-,N/A,,Clear,0,2013-03-08 04:36:00
7:56 PM,15.8,8.6,73,29.33,10.0,Calm,Calm,-,N/A,,Clear,0,2013-03-08 04:56:00
8:16 PM,15.8,8.6,73,29.34,10.0,Calm,Calm,-,N/A,,Clear,0,2013-03-08 05:16:00
8:36 PM,15.8,8.6,73,29.35,10.0,Calm,Calm,-,N/A,,Partly Cloudy,0,2013-03-08 05:36:00
8:56 PM,15.8,8.6,73,29.36,10.0,Calm,Calm,-,N/A,,Partly Cloudy,0,2013-03-08 05:56:00
9:16 PM,15.8,8.6,73,29.36,10.0,Calm,Calm,-,N/A,,Clear,0,2013-03-08 06:16:00
9:36 PM,15.8,8.6,73,29.38,10.0,Calm,Calm,-,N/A,,Clear,0,2013-03-08 06:36:00
9:56 PM,15.8,8.6,73,29.37,10.0,Calm,Calm,-,N/A,,Clear,0,2013-03-08 06:56:00
10:16 PM,15.8,10.4,79,29.38,10.0,Calm,Calm,-,N/A,,Clear,0,2013-03-08 07:16:00
10:36 PM,15.8,8.6,73,29.38,10.0,Calm,Calm,-,N/A,,Clear,0,2013-03-08 07:36:00
10:56 PM,17.6,12.2,79,29.38,10.0,Calm,Calm,-,N/A,,Clear,0,2013-03-08 07:56:00
11:16 PM,17.6,10.4,73,29.40,10.0,Calm,Calm,-,N/A,,Clear,0,2013-03-08 08:16:00
11:36 PM,17.6,10.4,73,29.40,10.0,Calm,Calm,-,N/A,,Clear,0,2013-03-08 08:36:00
11:56 PM,15.8,10.4,79,29.41,10.0,Calm,Calm,-,N/A,,Clear,0,2013-03-08 08:56:00